2015-05-21 00:04:45 r, 20.90m,0000000000Hz,0001243384c,0000002.698s, 019.0C,00002191
2015-05-21 00:14:45 r, 20.92m,0000000000Hz,0001264573c,0000002.744s, 018.3C,00002191
2015-05-21 00:24:45 r, 20.94m,0000000000Hz,0001286143c,0000002.791s, 018.0C,00002191
2015-05-21 00:34:45 r, 20.95m,0000000000Hz,0001300421c,0000002.822s, 018.3C,00002191
2015-05-21 00:44:45 r, 20.96m,0000000001Hz,0001304020c,0000002.830s, 019.0C,00002191
2015-05-21 00:54:46 r, 20.95m,0000000000Hz,0001301743c,0000002.825s, 019.3C,00002191
2015-05-21 01:04:44 r, 20.94m,0000000000Hz,0001293048c,0000002.806s, 019.9C,00002191
2015-05-21 01:14:44 r, 20.94m,0000000000Hz,0001289974c,0000002.799s, 019.9C,00002191
2015-05-21 01:24:46 r, 20.94m,0000000001Hz,0001289286c,0000002.798s, 019.9C,00002191
2015-05-21 01:34:45 r, 20.94m,0000000001Hz,0001290734c,0000002.801s, 019.6C,00002191
2015-05-21 01:44:44 r, 20.94m,0000000000Hz,0001290838c,0000002.801s, 019.6C,00002191
2015-05-21 01:54:47 r, 20.94m,0000000000Hz,0001284010c,0000002.786s, 019.3C,00002191
2015-05-21 02:04:45 r, 20.93m,0000000001Hz,0001276765c,0000002.771s, 019.6C,00002191
2015-05-21 02:14:44 r, 20.92m,0000000001Hz,0001261048c,0000002.737s, 019.6C,00002191
2015-05-21 02:24:45 r, 20.91m,0000000000Hz,0001246882c,0000002.706s, 019.6C,00002191
2015-05-21 02:34:45 r, 20.90m,0000000001Hz,0001235821c,0000002.682s, 019.6C,00002191
2015-05-21 02:44:45 r, 20.89m,0000000001Hz,0001222245c,0000002.652s, 019.3C,00002191
2015-05-21 02:54:45 r, 20.87m,0000000000Hz,0001198040c,0000002.600s, 019.0C,00002191
2015-05-21 03:04:45 r, 20.84m,0000000000Hz,0001176227c,0000002.553s, 018.3C,00002191
2015-05-21 03:14:45 r, 20.80m,0000000000Hz,0001130050c,0000002.452s, 017.7C,00002191
2015-05-21 03:24:45 r, 20.72m,0000000000Hz,0001054718c,0000002.289s, 017.0C,00002191
2015-05-21 03:34:44 r, 20.59m,0000000001Hz,0000933859c,0000002.027s, 016.4C,00002191
2015-05-21 03:44:45 r, 20.33m,0000000001Hz,0000739417c,0000001.605s, 016.1C,00002191
2015-05-21 03:54:44 r, 19.90m,0000000001Hz,0000496253c,0000001.077s, 015.7C,00002191
2015-05-21 04:04:45 r, 19.25m,0000000002Hz,0000274662c,0000000.596s, 015.7C,00002191
2015-05-21 04:14:45 r, 18.43m,0000000004Hz,0000128682c,0000000.279s, 015.4C,00002191
2015-05-21 04:24:46 r, 17.46m,0000000008Hz,0000053015c,0000000.115s, 015.1C,00002191
2015-05-21 04:34:45 r, 16.34m,0000000024Hz,0000018914c,0000000.041s, 015.1C,00002191
2015-05-21 04:44:44 r, 14.98m,0000000085Hz,0000005405c,0000000.012s, 015.1C,00002191
2015-05-21 04:54:46 r, 13.39m,0000000372Hz,0000000000c,0000000.000s, 015.1C,00002191
2015-05-21 05:04:45 r, 11.76m,0000001665Hz,0000000000c,0000000.000s, 014.8C,00002191
2015-05-21 05:14:45 r, 10.22m,0000006902Hz,0000000000c,0000000.000s, 014.8C,00002191
2015-05-21 05:24:45 r, 08.86m,0000024112Hz,0000000000c,0000000.000s, 014.5C,00002191
2015-05-21 05:34:45 r, 07.81m,0000063985Hz,0000000000c,0000000.000s, 014.5C,00002191
2015-05-21 05:44:45 r, 07.02m,0000131938Hz,0000000000c,0000000.000s, 014.5C,00002191
2015-05-21 05:54:45 r, 06.45m,0000223097Hz,0000000000c,0000000.000s, 014.5C,00002191
2015-05-21 06:04:45 r, 06.04m,0000325339Hz,0000000000c,0000000.000s, 014.8C,00002191
2015-05-21 06:14:45 r, 00.00m,0000438972Hz,0000000000c,0000000.000s, 014.8C,00002191
2015-05-21 06:24:47 r, 00.00m,0000558649Hz,0000000000c,0000000.000s, 015.4C,00002191
2015-05-21 06:34:45 r, 00.00m,0000595439Hz,0000000000c,0000000.000s, 016.7C,00002191
2015-05-21 06:44:45 r, 00.00m,0000595465Hz,0000000000c,0000000.000s, 017.7C,00002191
2015-05-21 06:54:45 r, 00.00m,0000595305Hz,0000000000c,0000000.000s, 019.0C,00002191
2015-05-21 07:04:45 r, 00.00m,0000595206Hz,0000000000c,0000000.000s, 019.9C,00002191
2015-05-21 07:14:45 r, 00.00m,0000595202Hz,0000000000c,0000000.000s, 021.2C,00002191
2015-05-21 07:24:45 r, 00.00m,0000595130Hz,0000000000c,0000000.000s, 022.5C,00002191
2015-05-21 07:34:45 r, 00.00m,0000595002Hz,0000000000c,0000000.000s, 023.5C,00002191
2015-05-21 07:44:44 r, 00.00m,0000594866Hz,0000000000c,0000000.000s, 024.8C,00002191
2015-05-21 07:54:45 r, 00.00m,0000594778Hz,0000000000c,0000000.000s, 026.1C,00002191
2015-05-21 08:04:45 r, 00.00m,0000594659Hz,0000000000c,0000000.000s, 027.0C,00002191
2015-05-21 08:14:45 r, 00.00m,0000594509Hz,0000000000c,0000000.000s, 028.0C,00002191
2015-05-21 08:24:45 r, 00.00m,0000594379Hz,0000000000c,0000000.000s, 029.3C,00002191
2015-05-21 08:34:45 r, 00.00m,0000594154Hz,0000000000c,0000000.000s, 031.2C,00002191
2015-05-21 08:44:45 r, 00.00m,0000594025Hz,0000000000c,0000000.000s, 032.5C,00002191
2015-05-21 08:54:45 r, 00.00m,0000593845Hz,0000000000c,0000000.000s, 034.1C,00002191
2015-05-21 09:04:45 r, 00.00m,0000593747Hz,0000000000c,0000000.000s, 035.1C,00002191
2015-05-21 09:14:45 r, 00.00m,0000593674Hz,0000000000c,0000000.000s, 036.0C,00002191
2015-05-21 09:24:45 r, 00.00m,0000593537Hz,0000000000c,0000000.000s, 036.7C,00002191
2015-05-21 09:34:45 r, 00.00m,0000593455Hz,0000000000c,0000000.000s, 037.7C,00002191
2015-05-21 09:44:45 r, 00.00m,0000593313Hz,0000000000c,0000000.000s, 039.0C,00002191
2015-05-21 09:54:45 r, 00.00m,0000593203Hz,0000000000c,0000000.000s, 040.2C,00002191
2015-05-21 10:04:45 r, 00.00m,0000592938Hz,0000000000c,0000000.000s, 041.5C,00002191
2015-05-21 10:14:45 r, 00.00m,0000592866Hz,0000000000c,0000000.000s, 041.5C,00002191
2015-05-21 10:24:45 r, 00.00m,0000592689Hz,0000000000c,0000000.000s, 042.2C,00002191
2015-05-21 10:34:45 r, 00.00m,0000592583Hz,0000000000c,0000000.000s, 042.8C,00002191
2015-05-21 10:44:45 r, 00.00m,0000592601Hz,0000000000c,0000000.000s, 043.1C,00002191
2015-05-21 10:54:45 r, 00.00m,0000592506Hz,0000000000c,0000000.000s, 043.8C,00002191
2015-05-21 11:04:45 r, 00.00m,0000592438Hz,0000000000c,0000000.000s, 044.4C,00002191
2015-05-21 11:14:45 r, 00.00m,0000592405Hz,0000000000c,0000000.000s, 044.4C,00002191
2015-05-21 11:24:45 r, 00.00m,0000592347Hz,0000000000c,0000000.000s, 045.1C,00002191
2015-05-21 11:34:45 r, 00.00m,0000592284Hz,0000000000c,0000000.000s, 045.1C,00002191
2015-05-21 11:44:45 r, 00.00m,0000592280Hz,0000000000c,0000000.000s, 045.4C,00002191
2015-05-21 11:54:45 r, 00.00m,0000592189Hz,0000000000c,0000000.000s, 045.4C,00002191
2015-05-21 12:04:45 r, 00.00m,0000592169Hz,0000000000c,0000000.000s, 045.4C,00002191
2015-05-21 12:14:45 r, 00.00m,0000592186Hz,0000000000c,0000000.000s, 045.7C,00002191
2015-05-21 12:24:45 r, 00.00m,0000592078Hz,0000000000c,0000000.000s, 046.4C,00002191
2015-05-21 12:34:45 r, 00.00m,0000592064Hz,0000000000c,0000000.000s, 046.4C,00002191
2015-05-21 12:44:45 r, 00.00m,0000591930Hz,0000000000c,0000000.000s, 046.4C,00002191
2015-05-21 12:54:45 r, 00.00m,0000591825Hz,0000000000c,0000000.000s, 046.7C,00002191
2015-05-21 13:04:45 r, 00.00m,0000591865Hz,0000000000c,0000000.000s, 047.0C,00002191
2015-05-21 13:14:45 r, 00.00m,0000591870Hz,0000000000c,0000000.000s, 047.3C,00002191
2015-05-21 13:24:45 r, 00.00m,0000591778Hz,0000000000c,0000000.000s, 047.0C,00002191
2015-05-21 13:34:45 r, 00.00m,0000591758Hz,0000000000c,0000000.000s, 047.3C,00002191
2015-05-21 13:44:45 r, 00.00m,0000591708Hz,0000000000c,0000000.000s, 047.7C,00002191
2015-05-21 13:54:45 r, 00.00m,0000591739Hz,0000000000c,0000000.000s, 047.7C,00002191
2015-05-21 14:04:45 r, 00.00m,0000591731Hz,0000000000c,0000000.000s, 048.0C,00002191
2015-05-21 14:14:45 r, 00.00m,0000591714Hz,0000000000c,0000000.000s, 048.0C,00002191
2015-05-21 14:24:45 r, 00.00m,0000591690Hz,0000000000c,0000000.000s, 047.7C,00002191
2015-05-21 14:34:45 r, 00.00m,0000591665Hz,0000000000c,0000000.000s, 048.0C,00002191
2015-05-21 14:44:45 r, 00.00m,0000591768Hz,0000000000c,0000000.000s, 048.0C,00002191
2015-05-21 14:54:45 r, 00.00m,0000591784Hz,0000000000c,0000000.000s, 048.0C,00002191
2015-05-21 15:04:45 r, 00.00m,0000591755Hz,0000000000c,0000000.000s, 047.7C,00002191
2015-05-21 15:14:45 r, 00.00m,0000591783Hz,0000000000c,0000000.000s, 047.3C,00002191
2015-05-21 15:24:45 r, 00.00m,0000591894Hz,0000000000c,0000000.000s, 047.3C,00002191
2015-05-21 15:34:45 r, 00.00m,0000591819Hz,0000000000c,0000000.000s, 047.0C,00002191
2015-05-21 15:44:45 r, 00.00m,0000591932Hz,0000000000c,0000000.000s, 046.7C,00002191
2015-05-21 15:54:45 r, 00.00m,0000591930Hz,0000000000c,0000000.000s, 046.7C,00002191
2015-05-21 16:04:46 r, 00.00m,0000592050Hz,0000000000c,0000000.000s, 046.7C,00002191
2015-05-21 16:14:45 r, 00.00m,0000591967Hz,0000000000c,0000000.000s, 046.4C,00002191
2015-05-21 16:24:45 r, 00.00m,0000592079Hz,0000000000c,0000000.000s, 046.0C,00002191
2015-05-21 16:34:45 r, 00.00m,0000592122Hz,0000000000c,0000000.000s, 045.7C,00002191
2015-05-21 16:44:45 r, 00.00m,0000592179Hz,0000000000c,0000000.000s, 045.4C,00002191
2015-05-21 16:54:45 r, 00.00m,0000592227Hz,0000000000c,0000000.000s, 045.1C,00002191
2015-05-21 17:04:45 r, 00.00m,0000592297Hz,0000000000c,0000000.000s, 044.8C,00002191
2015-05-21 17:14:45 r, 00.00m,0000592221Hz,0000000000c,0000000.000s, 044.8C,00002191
2015-05-21 17:24:45 r, 00.00m,0000592294Hz,0000000000c,0000000.000s, 044.4C,00002191
2015-05-21 17:34:45 r, 00.00m,0000592490Hz,0000000000c,0000000.000s, 043.5C,00002191
2015-05-21 17:44:45 r, 00.00m,0000592754Hz,0000000000c,0000000.000s, 041.9C,00002191
2015-05-21 17:54:45 r, 00.00m,0000592838Hz,0000000000c,0000000.000s, 041.2C,00002191
2015-05-21 18:04:45 r, 00.00m,0000592862Hz,0000000000c,0000000.000s, 041.2C,00002191
2015-05-21 18:14:45 r, 00.00m,0000592814Hz,0000000000c,0000000.000s, 041.2C,00002191
2015-05-21 18:24:45 r, 00.00m,0000592886Hz,0000000000c,0000000.000s, 040.9C,00002191
2015-05-21 18:34:46 r, 00.00m,0000592972Hz,0000000000c,0000000.000s, 040.2C,00002191
2015-05-21 18:44:45 r, 00.00m,0000593238Hz,0000000000c,0000000.000s, 039.3C,00002191
2015-05-21 18:54:45 r, 00.00m,0000593185Hz,0000000000c,0000000.000s, 038.3C,00002191
2015-05-21 19:04:45 r, 00.00m,0000593420Hz,0000000000c,0000000.000s, 037.3C,00002191
2015-05-21 19:14:45 r, 00.00m,0000593512Hz,0000000000c,0000000.000s, 036.7C,00002191
2015-05-21 19:24:45 r, 00.00m,0000593664Hz,0000000000c,0000000.000s, 035.7C,00002191
2015-05-21 19:34:45 r, 00.00m,0000593640Hz,0000000000c,0000000.000s, 035.1C,00002191
2015-05-21 19:44:45 r, 00.00m,0000593744Hz,0000000000c,0000000.000s, 034.4C,00002191
2015-05-21 19:54:45 r, 00.00m,0000593727Hz,0000000000c,0000000.000s, 034.1C,00002191
2015-05-21 20:04:45 r, 00.00m,0000593939Hz,0000000000c,0000000.000s, 033.5C,00002191
2015-05-21 20:14:45 r, 00.00m,0000594046Hz,0000000000c,0000000.000s, 032.5C,00002191
2015-05-21 20:24:45 r, 00.00m,0000594069Hz,0000000000c,0000000.000s, 031.9C,00002191
2015-05-21 20:34:45 r, 00.00m,0000594225Hz,0000000000c,0000000.000s, 030.6C,00002191
2015-05-21 20:44:45 r, 00.00m,0000431807Hz,0000000000c,0000000.000s, 029.9C,00002191
2015-05-21 20:54:45 r, 06.27m,0000263016Hz,0000000000c,0000000.000s, 029.3C,00002191
2015-05-21 21:04:46 r, 06.91m,0000145508Hz,0000000000c,0000000.000s, 028.3C,00002191
2015-05-21 21:14:45 r, 07.63m,0000074886Hz,0000000000c,0000000.000s, 027.3C,00002191
2015-05-21 21:24:45 r, 08.72m,0000027472Hz,0000000000c,0000000.000s, 026.4C,00002191
2015-05-21 21:34:45 r, 10.06m,0000007993Hz,0000000000c,0000000.000s, 025.7C,00002191
2015-05-21 21:44:45 r, 11.58m,0000001969Hz,0000000000c,0000000.000s, 025.1C,00002191
2015-05-21 21:54:45 r, 13.18m,0000000453Hz,0000000000c,0000000.000s, 024.4C,00002191
2015-05-21 22:04:45 r, 14.78m,0000000102Hz,0000004492c,0000000.010s, 024.1C,00002191
2015-05-21 22:14:45 r, 16.20m,0000000028Hz,0000016539c,0000000.036s, 023.8C,00002191
2015-05-21 22:24:45 r, 17.33m,0000000009Hz,0000046752c,0000000.101s, 023.5C,00002191
2015-05-21 22:34:45 r, 18.29m,0000000004Hz,0000113328c,0000000.246s, 022.8C,00002191
2015-05-21 22:44:45 r, 19.12m,0000000002Hz,0000242853c,0000000.527s, 022.5C,00002191
2015-05-21 22:54:45 r, 19.77m,0000000001Hz,0000441594c,0000000.958s, 022.2C,00002191
2015-05-21 23:04:45 r, 20.22m,0000000001Hz,0000667173c,0000001.448s, 021.5C,00002191
2015-05-21 23:14:45 r, 20.50m,0000000001Hz,0000852621c,0000001.850s, 021.5C,00002191
2015-05-21 23:24:45 r, 20.64m,0000000000Hz,0000971739c,0000002.109s, 021.2C,00002191
2015-05-21 23:34:45 r, 20.70m,0000000000Hz,0001035055c,0000002.246s, 020.9C,00002191
2015-05-21 23:44:45 r, 20.75m,0000000001Hz,0001078114c,0000002.340s, 020.9C,00002191
2015-05-21 23:54:45 r, 20.78m,0000000001Hz,0001109085c,0000002.407s, 020.6C,00002191
